QPF
0.09 0.11 0.09 0.08 0.08 0.08 0.10 0.13 0.10 0.06 0.03 0.03 0.04 0.04 0.04 0.03 0.04 0.04 0.05 0.06 0.07 0.07 0.05 0.03 0.03 0.03 0.03 0.04 0.03 0.03 0.03 0.03 0.03 0.04 0.04 0.04 0.04 0.05
0.07 0.09 0.09 0.09 0.09 0.08 0.09 0.10 0.09 0.07 0.05 0.04 0.04 0.05 0.06 0.04 0.04 0.04 0.04 0.03 0.04 0.05 0.04 0.03 0.03 0.03 0.03 0.03 0.04 0.05 0.05 0.05 0.04 0.03 0.04 0.04 0.04 0.04
0.07 0.07 0.08 0.10 0.11 0.10 0.10 0.11 0.10 0.09 0.08 0.07 0.06 0.06 0.06 0.05 0.05 0.04 0.04 0.02 0.02 0.03 0.04 0.04 0.04 0.05 0.05 0.06 0.05 0.06 0.06 0.06 0.05 0.05 0.04 0.04 0.05 0.04
0.09 0.08 0.07 0.08 0.09 0.09 0.10 0.11 0.12 0.13 0.10 0.07 0.06 0.05 0.05 0.06 0.05 0.05 0.04 0.04 0.03 0.04 0.05 0.06 0.07 0.08 0.09 0.09 0.08 0.07 0.06 0.06 0.06 0.07 0.06 0.06 0.07 0.07
0.07 0.06 0.05 0.05 0.04 0.05 0.06 0.06 0.06 0.06 0.05 0.04 0.04 0.04 0.05 0.07 0.07 0.06 0.05 0.05 0.04 0.05 0.05 0.06 0.07 0.06 0.06 0.05 0.04 0.04 0.03 0.04 0.06 0.08 0.09 0.10 0.10 0.10
0.03 0.03 0.04 0.04 0.04 0.05 0.04 0.03 0.03 0.04 0.03 0.03 0.03 0.04 0.05 0.09 0.09 0.07 0.07 0.06 0.05 0.05 0.05 0.04 0.04 0.04 0.04 0.03 0.03 0.03 0.02 0.02 0.04 0.06 0.07 0.09 0.09 0.09
0.03 0.03 0.04 0.05 0.05 0.04 0.03 0.02 0.03 0.03 0.04 0.04 0.04 0.04 0.05 0.08 0.08 0.07 0.07 0.05 0.04 0.03 0.03 0.02 0.03 0.04 0.04 0.03 0.03 0.04 0.03 0.03 0.03 0.03 0.04 0.05 0.08 0.10
0.03 0.05 0.06 0.06 0.05 0.04 0.03 0.03 0.03 0.03 0.03 0.03 0.03 0.03 0.04 0.04 0.05 0.05 0.05 0.04 0.04 0.03 0.04 0.03 0.03 0.03 0.03 0.03 0.03 0.03 0.03 0.03 0.03 0.03 0.03 0.03 0.04 0.08
0.06 0.06 0.05 0.04 0.05 0.04 0.03 0.03 0.03 0.03 0.02 0.02 0.01 0.02 0.03 0.03 0.04 0.03 0.04 0.03 0.02 0.02 0.02 0.02 0.02 0.01 0.02 0.02 0.03 0.02 0.02 0.03 0.03 0.03 0.03 0.02 0.02 0.03
0.08 0.08 0.06 0.05 0.05 0.04 0.04 0.04 0.04 0.02 0.03 0.02 0.01 0.01 0.02 0.03 0.04 0.04 0.04 0.04 0.03 0.03 0.02 0.01 0.01 0.01 0.02 0.02 0.03 0.03 0.03 0.03 0.03 0.03 0.03 0.02 0.02 0.02
0.08 0.09 0.07 0.06 0.06 0.05 0.04 0.05 0.05 0.03 0.02 0.01 0.01 0.01 0.01 0.04 0.06 0.06 0.05 0.04 0.04 0.03 0.03 0.02 0.02 0.02 0.02 0.02 0.03 0.03 0.02 0.02 0.02 0.03 0.04 0.04 0.04 0.03
0.07 0.07 0.07 0.06 0.05 0.05 0.04 0.03 0.03 0.03 0.03 0.02 0.01 0.01 0.01 0.02 0.04 0.04 0.04 0.04 0.04 0.04 0.03 0.03 0.03 0.04 0.03 0.02 0.02 0.02 0.03 0.03 0.03 0.03 0.04 0.04 0.05 0.05
0.12 0.10 0.09 0.07 0.06 0.05 0.04 0.03 0.02 0.03 0.02 0.02 0.01 0.01 0.01 0.02 0.03 0.03 0.04 0.04 0.05 0.05 0.03 0.03 0.02 0.03 0.03 0.02 0.02 0.02 0.02 0.02 0.03 0.03 0.02 0.02 0.03 0.04
0.12 0.11 0.10 0.08 0.06 0.05 0.04 0.03 0.03 0.03 0.02 0.02 0.02 0.02 0.02 0.01 0.02 0.03 0.03 0.03 0.03 0.04 0.05 0.04 0.04 0.05 0.06 0.05 0.04 0.03 0.03 0.02 0.02 0.02 0.02 0.02 0.02 0.03
0.10 0.08 0.07 0.06 0.05 0.05 0.04 0.04 0.04 0.04 0.04 0.03 0.02 0.01 0.02 0.02 0.03 0.03 0.03 0.03 0.02 0.03 0.03 0.04 0.04 0.05 0.05 0.05 0.04 0.04 0.04 0.04 0.03 0.03 0.03 0.03 0.02 0.02
0.06 0.07 0.08 0.08 0.06 0.05 0.04 0.04 0.03 0.03 0.03 0.03 0.02 0.02 0.03 0.03 0.03 0.03 0.03 0.02 0.02 0.02 0.02 0.03 0.03 0.04 0.04 0.05 0.05 0.05 0.05 0.04 0.04 0.04 0.04 0.04 0.04 0.03
0.05 0.06 0.06 0.06 0.06 0.06 0.05 0.04 0.04 0.03 0.03 0.03 0.03 0.03 0.03 0.04 0.04 0.05 0.04 0.03 0.02 0.01 0.01 0.02 0.03 0.04 0.04 0.04 0.04 0.04 0.05 0.06 0.05 0.05 0.05 0.04 0.02 0.03
0.06 0.06 0.07 0.07 0.07 0.06 0.06 0.05 0.05 0.05 0.04 0.04 0.04 0.04 0.04 0.04 0.04 0.05 0.06 0.05 0.04 0.03 0.02 0.02 0.03 0.04 0.04 0.05 0.05 0.04 0.04 0.04 0.05 0.05 0.05 0.03 0.02 0.03
0.05 0.05 0.07 0.08 0.07 0.06 0.06 0.06 0.05 0.06 0.06 0.06 0.06 0.06 0.05 0.04 0.04 0.05 0.05 0.05 0.05 0.05 0.04 0.04 0.04 0.05 0.04 0.03 0.05 0.06 0.06 0.05 0.05 0.04 0.03 0.03 0.03 0.04
0.03 0.04 0.05 0.08 0.12 0.13 0.13 0.14 0.13 0.12 0.11 0.09 0.09 0.08 0.08 0.07 0.07 0.07 0.06 0.05 0.05 0.05 0.05 0.05 0.04 0.04 0.04 0.03 0.04 0.05 0.08 0.09 0.07 0.06 0.05 0.05 0.05 0.05
0.04 0.04 0.04 0.04 0.07 0.09 0.09 0.10 0.10 0.11 0.12 0.13 0.13 0.12 0.12 0.10 0.10 0.09 0.08 0.06 0.05 0.05 0.04 0.03 0.03 0.04 0.05 0.05 0.04 0.03 0.05 0.07 0.08 0.08 0.08 0.07 0.06 0.05
0.05 0.06 0.06 0.06 0.07 0.08 0.08 0.09 0.08 0.06 0.07 0.07 0.08 0.08 0.08 0.10 0.10 0.10 0.09 0.07 0.06 0.05 0.04 0.03 0.03 0.04 0.05 0.04 0.03 0.04 0.05 0.06 0.08 0.07 0.07 0.06 0.04 0.03
0.05 0.05 0.05 0.06 0.07 0.07 0.07 0.07 0.07 0.06 0.06 0.06 0.06 0.06 0.06 0.06 0.06 0.07 0.07 0.06 0.04 0.03 0.03 0.03 0.03 0.04 0.04 0.04 0.04 0.05 0.05 0.06 0.06 0.06 0.06 0.05 0.04 0.03
MSLP
1014.65 1014.96 1015.29 1015.61 1015.91 1016.15 1016.31 1016.37 1016.34 1016.22 1016.02 1015.77 1015.48 1015.17 1014.87 1014.60 1014.36 1014.18 1014.07 1014.03 1014.06 1014.17 1014.34 1014.55 1014.78 1014.99 1015.17 1015.30 1015.37 1015.37 1015.33 1015.25 1015.14 1015.03 1014.91 1014.76 1014.59 1014.37
1014.01 1014.30 1014.62 1014.93 1015.24 1015.50 1015.72 1015.87 1015.94 1015.93 1015.86 1015.71 1015.51 1015.27 1015.00 1014.71 1014.44 1014.19 1013.99 1013.86 1013.82 1013.87 1013.99 1014.18 1014.41 1014.64 1014.86 1015.04 1015.15 1015.20 1015.19 1015.12 1015.02 1014.88 1014.73 1014.55 1014.34 1014.07
1013.37 1013.65 1013.95 1014.26 1014.57 1014.86 1015.12 1015.34 1015.50 1015.60 1015.64 1015.61 1015.51 1015.34 1015.11 1014.84 1014.55 1014.26 1013.99 1013.78 1013.66 1013.63 1013.69 1013.84 1014.05 1014.30 1014.54 1014.75 1014.91 1015.00 1015.03 1014.98 1014.89 1014.74 1014.56 1014.35 1014.10 1013.81
1012.75 1013.03 1013.33 1013.64 1013.95 1014.26 1014.56 1014.84 1015.08 1015.28 1015.41 1015.49 1015.48 1015.40 1015.23 1014.99 1014.70 1014.39 1014.08 1013.82 1013.62 1013.52 1013.52 1013.62 1013.80 1014.02 1014.27 1014.50 1014.69 1014.82 1014.87 1014.85 1014.76 1014.61 1014.41 1014.18 1013.90 1013.58
1012.15 1012.44 1012.74 1013.07 1013.40 1013.74 1014.07 1014.40 1014.70 1014.96 1015.18 1015.34 1015.42 1015.42 1015.32 1015.14 1014.88 1014.58 1014.26 1013.97 1013.72 1013.57 1013.51 1013.55 1013.68 1013.87 1014.10 1014.32 1014.52 1014.65 1014.72 1014.71 1014.63 1014.48 1014.28 1014.03 1013.73 1013.40
1011.53 1011.85 1012.18 1012.54 1012.90 1013.27 1013.64 1014.00 1014.34 1014.66 1014.94 1015.16 1015.32 1015.39 1015.36 1015.25 1015.05 1014.78 1014.49 1014.20 1013.94 1013.75 1013.65 1013.64 1013.71 1013.85 1014.03 1014.23 1014.40 1014.53 1014.59 1014.59 1014.51 1014.36 1014.15 1013.90 1013.60 1013.27
1010.89 1011.24 1011.62 1012.02 1012.43 1012.84 1013.25 1013.64 1014.01 1014.36 1014.67 1014.93 1015.14 1015.27 1015.31 1015.27 1015.14 1014.95 1014.71 1014.45 1014.21 1014.01 1013.89 1013.83 1013.85 1013.94 1014.07 1014.21 1014.34 1014.44 1014.48 1014.46 1014.38 1014.24 1014.04 1013.78 1013.50 1013.18
1010.21 1010.61 1011.05 1011.51 1011.98 1012.44 1012.88 1013.29 1013.68 1014.04 1014.37 1014.65 1014.88 1015.05 1015.15 1015.17 1015.12 1015.01 1014.84 1014.65 1014.46 1014.28 1014.15 1014.08 1014.06 1014.09 1014.16 1014.24 1014.31 1014.37 1014.38 1014.35 1014.26 1014.11 1013.92 1013.69 1013.42 1013.13
1009.52 1009.98 1010.49 1011.02 1011.55 1012.06 1012.54 1012.98 1013.38 1013.73 1014.04 1014.32 1014.55 1014.73 1014.87 1014.95 1014.96 1014.93 1014.85 1014.74 1014.61 1014.48 1014.38 1014.30 1014.26 1014.25 1014.26 1014.29 1014.31 1014.32 1014.29 1014.24 1014.14 1014.00 1013.83 1013.62 1013.38 1013.12
1008.88 1009.41 1009.99 1010.59 1011.19 1011.76 1012.27 1012.72 1013.11 1013.45 1013.73 1013.97 1014.18 1014.35 1014.49 1014.60 1014.67 1014.70 1014.70 1014.67 1014.62 1014.55 1014.49 1014.44 1014.39 1014.36 1014.34 1014.32 1014.30 1014.27 1014.21 1014.14 1014.04 1013.91 1013.76 1013.58 1013.38 1013.15
1008.37 1008.96 1009.61 1010.28 1010.94 1011.55 1012.09 1012.55 1012.93 1013.23 1013.47 1013.66 1013.82 1013.95 1014.07 1014.18 1014.28 1014.35 1014.41 1014.45 1014.47 1014.48 1014.47 1014.45 1014.42 1014.40 1014.36 1014.32 1014.27 1014.21 1014.14 1014.05 1013.95 1013.84 1013.71 1013.57 1013.41 1013.23
1008.06 1008.70 1009.40 1010.13 1010.83 1011.47 1012.03 1012.49 1012.84 1013.10 1013.28 1013.41 1013.51 1013.58 1013.66 1013.74 1013.83 1013.93 1014.03 1014.12 1014.20 1014.26 1014.31 1014.34 1014.34 1014.33 1014.30 1014.26 1014.20 1014.13 1014.05 1013.97 1013.88 1013.79 1013.69 1013.58 1013.46 1013.33
1008.00 1008.67 1009.41 1010.15 1010.87 1011.53 1012.08 1012.52 1012.84 1013.05 1013.18 1013.24 1013.26 1013.27 1013.29 1013.33 1013.40 1013.49 1013.60 1013.72 1013.84 1013.95 1014.05 1014.12 1014.16 1014.18 1014.17 1014.14 1014.09 1014.02 1013.95 1013.87 1013.80 1013.73 1013.66 1013.59 1013.51 1013.43
1008.18 1008.86 1009.59 1010.33 1011.04 1011.67 1012.20 1012.61 1012.89 1013.05 1013.12 1013.12 1013.08 1013.03 1012.99 1012.98 1013.01 1013.09 1013.19 1013.32 1013.46 1013.60 1013.73 1013.83 1013.91 1013.95 1013.97 1013.96 1013.92 1013.87 1013.81 1013.75 1013.69 1013.64 1013.60 1013.57 1013.54 1013.49
1008.54 1009.20 1009.90 1010.60 1011.26 1011.85 1012.33 1012.69 1012.92 1013.04 1013.06 1013.02 1012.93 1012.83 1012.75 1012.70 1012.70 1012.74 1012.83 1012.95 1013.09 1013.25 1013.39 1013.51 1013.61 1013.68 1013.72 1013.72 1013.70 1013.66 1013.62 1013.58 1013.54 1013.51 1013.50 1013.50 1013.50 1013.50
1009.01 1009.61 1010.24 1010.86 1011.45 1011.96 1012.38 1012.68 1012.87 1012.95 1012.95 1012.87 1012.76 1012.64 1012.54 1012.47 1012.45 1012.47 1012.54 1012.65 1012.79 1012.93 1013.08 1013.21 1013.32 1013.39 1013.44 1013.45 1013.45 1013.42 1013.39 1013.36 1013.34 1013.33 1013.34 1013.37 1013.40 1013.43
1009.48 1010.00 1010.53 1011.05 1011.53 1011.95 1012.29 1012.53 1012.68 1012.74 1012.72 1012.65 1012.55 1012.44 1012.34 1012.28 1012.25 1012.27 1012.33 1012.43 1012.55 1012.69 1012.82 1012.94 1013.04 1013.12 1013.16 1013.18 1013.18 1013.16 1013.14 1013.12 1013.11 1013.12 1013.15 1013.19 1013.25 1013.31
1009.86 1010.28 1010.69 1011.10 1011.47 1011.78 1012.04 1012.23 1012.34 1012.39 1012.38 1012.34 1012.27 1012.19 1012.13 1012.09 1012.09 1012.12 1012.18 1012.27 1012.38 1012.50 1012.62 1012.73 1012.81 1012.88 1012.91 1012.93 1012.92 1012.91 1012.89 1012.88 1012.88 1012.91 1012.95 1013.01 1013.09 1013.17
1010.10 1010.41 1010.72 1011.00 1011.26 1011.48 1011.67 1011.80 1011.90 1011.95 1011.97 1011.96 1011.94 1011.92 1011.91 1011.91 1011.94 1011.99 1012.06 1012.15 1012.26 1012.36 1012.46 1012.55 1012.62 1012.67 1012.70 1012.70 1012.70 1012.68 1012.68 1012.68 1012.69 1012.73 1012.79 1012.87 1012.96 1013.06
1010.20 1010.42 1010.62 1010.80 1010.97 1011.11 1011.23 1011.34 1011.42 1011.49 1011.54 1011.57 1011.61 1011.64 1011.68 1011.73 1011.79 1011.86 1011.95 1012.04 1012.14 1012.23 1012.32 1012.39 1012.45 1012.49 1012.51 1012.51 1012.51 1012.50 1012.51 1012.52 1012.56 1012.62 1012.69 1012.79 1012.90 1013.01
1010.19 1010.34 1010.46 1010.56 1010.66 1010.75 1010.84 1010.93 1011.01 1011.09 1011.17 1011.25 1011.33 1011.40 1011.48 1011.56 1011.64 1011.73 1011.81 1011.90 1011.99 1012.08 1012.15 1012.21 1012.26 1012.29 1012.32 1012.33 1012.34 1012.35 1012.37 1012.41 1012.47 1012.55 1012.65 1012.77 1012.90 1013.02
1010.13 1010.22 1010.30 1010.37 1010.43 1010.50 1010.57 1010.66 1010.75 1010.85 1010.95 1011.05 1011.15 1011.24 1011.33 1011.42 1011.49 1011.57 1011.64 1011.72 1011.79 1011.86 1011.92 1011.97 1012.02 1012.06 1012.09 1012.12 1012.15 1012.18 1012.23 1012.30 1012.39 1012.50 1012.63 1012.77 1012.92 1013.06
1010.08 1010.15 1010.21 1010.27 1010.33 1010.41 1010.49 1010.59 1010.70 1010.81 1010.92 1011.02 1011.12 1011.19 1011.26 1011.31 1011.35 1011.39 1011.43 1011.47 1011.51 1011.55 1011.60 1011.65 1011.70 1011.74 1011.79 1011.83 1011.89 1011.95 1012.03 1012.13 1012.25 1012.39 1012.55 1012.72 1012.89 1013.06
Thickness
5739 5738 5736 5735 5734 5733 5730 5727 5720 5715 5717 5723 5726 5730 5730 5729 5728 5728 5727 5726 5726 5725 5724 5723 5722 5720 5719 5717 5715 5714 5711 5709 5707 5705 5704 5702 5700 5697
5737 5735 5734 5733 5732 5730 5728 5727 5724 5719 5715 5721 5723 5726 5726 5725 5725 5724 5724 5723 5723 5722 5721 5720 5719 5717 5715 5714 5712 5711 5708 5706 5704 5702 5700 5698 5696 5694
5735 5733 5731 5730 5728 5727 5726 5724 5722 5719 5714 5717 5720 5722 5721 5719 5720 5720 5719 5719 5718 5718 5718 5717 5715 5713 5712 5710 5708 5707 5704 5702 5700 5698 5696 5694 5692 5690
5731 5730 5728 5728 5725 5723 5722 5720 5719 5717 5714 5712 5714 5715 5715 5715 5714 5714 5714 5713 5713 5714 5713 5712 5711 5709 5707 5705 5704 5702 5700 5698 5696 5693 5691 5689 5688 5686
5728 5726 5725 5723 5721 5719 5718 5716 5715 5715 5712 5709 5709 5710 5709 5709 5707 5707 5707 5707 5707 5708 5707 5706 5706 5704 5702 5700 5699 5697 5695 5693 5691 5689 5686 5684 5683 5681
5725 5723 5721 5719 5717 5715 5714 5712 5711 5708 5707 5705 5703 5703 5702 5703 5701 5699 5698 5699 5700 5701 5701 5700 5699 5698 5696 5694 5693 5691 5689 5687 5685 5683 5681 5679 5677 5675
5720 5719 5717 5717 5715 5713 5711 5708 5706 5703 5700 5698 5697 5696 5695 5694 5694 5693 5692 5692 5693 5693 5692 5692 5692 5690 5689 5688 5686 5685 5683 5681 5679 5677 5675 5673 5671 5669
5714 5713 5712 5711 5709 5708 5707 5705 5703 5699 5695 5692 5691 5690 5690 5690 5689 5688 5684 5682 5681 5685 5684 5684 5684 5683 5683 5682 5681 5679 5677 5675 5672 5670 5668 5666 5664 5663
5708 5706 5706 5705 5702 5700 5699 5698 5697 5696 5695 5691 5687 5687 5686 5686 5684 5682 5679 5677 5677 5679 5677 5675 5676 5675 5676 5675 5674 5673 5671 5668 5666 5663 5661 5660 5658 5656
5703 5701 5699 5697 5697 5694 5691 5690 5689 5689 5688 5687 5686 5685 5684 5683 5681 5679 5677 5673 5672 5672 5672 5668 5668 5667 5668 5668 5667 5666 5664 5662 5659 5657 5655 5653 5652 5650
5696 5695 5693 5691 5690 5687 5684 5682 5682 5682 5683 5682 5681 5680 5679 5677 5676 5672 5668 5664 5662 5663 5664 5661 5660 5659 5659 5659 5659 5657 5656 5654 5653 5651 5649 5646 5644 5642
5687 5687 5686 5683 5682 5679 5677 5675 5673 5674 5674 5674 5673 5673 5672 5671 5669 5667 5664 5658 5655 5655 5657 5654 5652 5649 5647 5649 5650 5649 5647 5646 5645 5643 5641 5639 5637 5634
5678 5677 5676 5675 5673 5672 5670 5669 5668 5667 5666 5665 5664 5664 5663 5662 5661 5660 5659 5655 5651 5649 5651 5648 5644 5642 5639 5639 5640 5640 5639 5638 5636 5635 5634 5632 5630 5628
5670 5669 5668 5667 5665 5664 5663 5663 5662 5660 5658 5657 5656 5655 5654 5654 5654 5653 5652 5650 5649 5647 5646 5643 5639 5636 5632 5630 5630 5631 5631 5630 5629 5628 5626 5625 5623 5622
5663 5662 5661 5659 5657 5656 5656 5655 5653 5651 5649 5648 5648 5648 5647 5647 5646 5645 5644 5642 5641 5639 5638 5636 5633 5630 5627 5624 5623 5622 5622 5622 5621 5619 5618 5617 5616 5615
5653 5652 5651 5650 5648 5647 5646 5645 5644 5643 5642 5641 5641 5641 5640 5638 5636 5636 5633 5631 5629 5628 5629 5628 5626 5624 5620 5619 5616 5615 5615 5613 5614 5612 5611 5610 5610 5610
5643 5642 5640 5638 5637 5636 5635 5635 5634 5633 5633 5633 5632 5631 5629 5628 5627 5627 5624 5622 5619 5618 5617 5618 5617 5616 5615 5612 5610 5609 5608 5608 5608 5606 5604 5603 5603 5603
5634 5631 5629 5627 5626 5625 5625 5624 5624 5624 5623 5623 5622 5621 5620 5619 5618 5617 5615 5613 5611 5609 5608 5607 5606 5605 5603 5604 5605 5604 5602 5602 5601 5600 5598 5596 5597 5598
5624 5622 5620 5618 5617 5616 5616 5615 5615 5615 5614 5613 5612 5612 5611 5610 5610 5608 5606 5604 5602 5601 5600 5599 5597 5595 5594 5594 5598 5599 5596 5595 5594 5593 5592 5592 5592 5594
5614 5613 5611 5610 5608 5607 5607 5607 5606 5606 5606 5605 5603 5602 5602 5601 5600 5598 5596 5594 5594 5593 5591 5591 5590 5589 5589 5589 5589 5591 5591 5589 5588 5586 5586 5586 5585 5586
5604 5603 5602 5601 5600 5599 5599 5598 5598 5597 5596 5595 5594 5593 5592 5592 5590 5589 5587 5586 5585 5584 5583 5583 5584 5584 5583 5581 5580 5582 5584 5584 5583 5580 5579 5577 5576 5576
5596 5594 5594 5592 5591 5590 5589 5588 5588 5586 5585 5584 5584 5584 5583 5582 5581 5579 5577 5576 5575 5575 5574 5574 5575 5574 5573 5572 5572 5573 5574 5575 5575 5575 5574 5574 5571 5570
5589 5588 5586 5584 5583 5582 5580 5579 5577 5575 5574 5573 5572 5572 5572 5571 5571 5570 5568 5567 5566 5565 5565 5564 5564 5564 5564 5563 5563 5563 5564 5564 5564 5565 5565 5566 5566 5567